View from above orbital plane
|
View from above satellite
|
Ground track
|
The orbit data is extracted from the following two-line orbital elements,
1 31792U 07029A 21055.43298129 -.00000008 00000-0 22089-4 0 9995
2 31792 70.8908 103.5209 0004592 34.5834 325.5585 14.12237087704350
Epoch (UTC): | 24 February 2021 10:23:29 |
Eccentricity: | 0.0004592 |
inclination: | 70.8908° |
perigee height: | 848 km |
apogee height: | 855 km |
right ascension of ascending node: | 103.5209° |
argument of perigee: | 34.5834° |
revolutions per day: | 14.12237087 |
mean anomaly at epoch: | 325.5585° |
orbit number at epoch: | 70435 |
The dashed part of the orbit path shows where the satellite is in the earth's shadow,
|
|